This is the latest recevied weather packets stored in our database for station/object KQ4OSL. If no packets are shown the sender has not sent any weather packets the latest 10 day(s).
| Time | Temp. | Humidity | Pressure | Rain* | Wind** | Luminosity | Snow |
|---|---|---|---|---|---|---|---|
| 1777432311 | 15.56° C | 99% | 1018.6 hPa | 0 mm | - | 0 W/m² | - |
| 1777432010 | 15.56° C | 99% | 1019 hPa | 0 mm | - | 0 W/m² | - |
| 1777431707 | 15.56° C | 99% | 1018.7 hPa | 0 mm | - | 0 W/m² | - |
| 1777431403 | 15.56° C | 99% | 1019 hPa | 0 mm | - | 0 W/m² | - |
| 1777431099 | 16.11° C | 99% | 1019.3 hPa | 0 mm | - | 0 W/m² | - |
| 1777430795 | 16.11° C | 99% | 1019.6 hPa | 0 mm | - | 0 W/m² | - |
| 1777430492 | 16.11° C | 99% | 1020 hPa | 0 mm | - | 0 W/m² | - |
| 1777430187 | 16.11° C | 99% | 1020 hPa | 0 mm | - | 0 W/m² | - |
| 1777429882 | 16.11° C | 99% | 1020.5 hPa | 0 mm | - | 0 W/m² | - |
| 1777429579 | 16.11° C | 99% | 1020.7 hPa | 1.27 mm | - | 0 W/m² | - |
| 1777429269 | 16.11° C | 99% | 1021.3 hPa | 3.05 mm | - | 0 W/m² | - |
| 1777428965 | 16.11° C | 99% | 1021.6 hPa | 3.05 mm | - | 0 W/m² | - |
| 1777428662 | 16.11° C | 99% | 1022.1 hPa | 3.05 mm | - | 0 W/m² | - |
| 1777428357 | 16.67° C | 99% | 1022.5 hPa | 1.78 mm | - | 0 W/m² | - |
| 1777428053 | 16.11° C | 99% | 1022.6 hPa | 1.78 mm | - | 0 W/m² | - |
| 1777427749 | 16.11° C | 99% | 1022.3 hPa | 4.83 mm | - | 0 W/m² | - |
| 1777427447 | 16.11° C | 99% | 1021.9 hPa | 4.32 mm | - | 0 W/m² | - |
| 1777427142 | 16.11° C | 99% | 1020.9 hPa | 4.83 mm | - | 0 W/m² | - |
| 1777426840 | 16.11° C | 99% | 1021 hPa | 1.78 mm | - | 0 W/m² | - |
| 1777426537 | 16.11° C | 99% | 1021.3 hPa | 0 mm | - | 0 W/m² | - |
| 1777426233 | 16.11° C | 99% | 1021.4 hPa | 0 mm | - | 0 W/m² | - |
| 1777425927 | 16.11° C | 99% | 1021.9 hPa | 0 mm | - | 0 W/m² | - |
| 1777425623 | 15.56° C | 99% | 1021.7 hPa | 0 mm | - | 0 W/m² | - |
| 1777425319 | 15.56° C | 99% | 1021.7 hPa | 0 mm | - | 0 W/m² | - |
| 1777425016 | 15.56° C | 99% | 1021.5 hPa | 0 mm | - | 0 W/m² | - |
* Rain latest hour (hover to see other rain measurements)
** Current wind speed in m/s (hover to see current wind gust speed)